Location: Melque
(41.0517°N, 4.4694°W)
Time: 17:55:14
(UTC+00:00)

Hubble Space Telescope - Visible Passes

Search period start: 07 March 2026 00:00
Search period end: 17 March 2026 00:00
Orbit: 476 x 479 km, 28.5° (Epoch: 7 March)

Date Brightness Start Highest point End Pass type
(mag) Time Alt. Az. Time Alt. Az. Time Alt. Az.
12 Mar 2.9 19:52:57 10° SSW 19:54:27 12° S 19:54:33 12° S visible
13 Mar 2.9 19:22:17 10° SSW 19:23:47 12° S 19:25:18 10° SSE visible
14 Mar 3.0 18:51:37 10° SSW 18:53:07 12° S 18:54:37 10° SSE visible
